Location: Praha
(50.0830°N, 14.4670°E)
Time: 15:06:48
(UTC+01:00)

ISS - Pass Details

Date: 11 December 2018
Orbit: 401 x 408 km, 51.6° (Epoch: 12 December)

Event Time Altitude Azimuth Distance (km) Brightness Sun altitude
Rises 16:35:55 0° 287° (WNW) 2,321 0.7 -5.7°
Reaches altitude 10° 16:38:01 10° 285° (WNW) 1,459 -0.3 -6.0°
Maximum altitude 16:41:16 71° 201° (SSW) 428 -3.5 -6.4°
Drops below altitude 10° 16:44:30 10° 117° (ESE) 1,452 -1.4 -6.9°
Sets 16:46:35 0° 115° (ESE) 2,308 -0.4 -7.2°
